Mount Holly, NJ

11:40 AM EST on December 06, 2019 (GMT -0500)
South Jersey Regional

Weather History for KVAY - September, 2019

Change the Weather History Date:

Monday, September 2, 2019

  Actual Average (KPNE) Record (KPNE)
Temperature  
Mean Temperature 73 °F -  
Max Temperature 86 °F 79 °F 93 °F (2008)
Min Temperature 62 °F 61 °F 54 °F (2001)
Cooling Degree Days 8    
Growing Degree Days 23 (Base 50)    
Moisture  
Dew Point 67 °F    
Average Humidity 85    
Maximum Humidity 100    
Minimum Humidity 53    
Precipitation  
Precipitation 0.26 in - - ()
Sea Level Pressure  
Sea Level Pressure 30.04 in    
Wind  
Wind Speed 2 mph (West)    
Max Wind Speed 15 mph    
Max Gust Speed 21 mph    
Visibility 8 miles    
Events Rain , Thunderstorm    
Averages and records for this station are not official NWS values.
T = Trace of Precipitation, MM = Missing Value Source: NWS Daily Summary

Daily Weather History Graph

Daily Weather History Graph

Search for Another Location

Airport or City:

Astronomy

Sep. 02, 2019 Rise Set
Actual Time 6:27 AM EDT 7:29 PM EDT
Civil Twilight 6:00 AM EDT 7:57 PM EDT
Nautical Twilight 5:27 AM EDT 8:30 PM EDT
Astronomical Twilight 4:52 AM EDT 9:04 PM EDT
Moon 10:07 AM EDT (9/2) 9:50 PM EDT (9/2)
Length of Visible Light 13h 57m
Length of Day
13h 01m
Waxing Crescent, 15% of the Moon is Illuminated
Sep 2
Waxing Crescent
Sep 5
First Quarter
Sep 14
Full
Sep 21
Last Quarter
Sep 28
New

Hourly Weather History & Observations

Time (EDT) Temp. Heat Index Dew Point Humidity Pressure Visibility Wind Dir Wind Speed Gust Speed Precip Events Conditions
12:54 AM 64.0 °F - 62.1 °F 93% 30.20 in 10.0 mi Calm Calm - N/A   Clear
1:54 AM 64.0 °F - 62.1 °F 93% 30.18 in 10.0 mi ESE 3.5 mph - N/A   Clear
2:54 AM 64.0 °F - 62.1 °F 93% 30.16 in 10.0 mi Calm Calm - N/A   Clear
3:22 AM 64.0 °F - 62.1 °F 93% 30.15 in 10.0 mi Calm Calm - N/A   Mostly Cloudy
3:54 AM 64.0 °F - 62.1 °F 93% 30.14 in 10.0 mi Calm Calm - N/A   Overcast
4:54 AM 63.0 °F - 61.0 °F 93% 30.12 in 10.0 mi Calm Calm - N/A   Scattered Clouds
5:54 AM 63.0 °F - 62.1 °F 97% 30.12 in 10.0 mi Calm Calm - N/A   Partly Cloudy
6:19 AM 63.0 °F - 61.0 °F 93% 30.12 in 10.0 mi Calm Calm - N/A   Mostly Cloudy
6:50 AM 62.6 °F - 62.6 °F 100% 30.11 in 10.0 mi Calm Calm - N/A   Partly Cloudy
6:54 AM 63.0 °F - 62.1 °F 97% 30.11 in 10.0 mi Calm Calm - N/A   Scattered Clouds
7:54 AM 66.0 °F - 64.0 °F 93% 30.11 in 10.0 mi Calm Calm - N/A   Partly Cloudy
8:25 AM 70.0 °F - 66.0 °F 87% 30.10 in 10.0 mi Calm Calm - N/A   Mostly Cloudy
8:54 AM 72.0 °F - 69.1 °F 91% 30.10 in 10.0 mi Calm Calm - N/A   Overcast
9:54 AM 75.9 °F - 70.0 °F 82% 30.08 in 10.0 mi Variable 5.8 mph - N/A   Scattered Clouds
10:08 AM 78.1 °F - 70.0 °F 76% 30.07 in 10.0 mi Variable 3.5 mph - N/A   Mostly Cloudy
10:15 AM 78.1 °F - 71.1 °F 79% 30.06 in 10.0 mi Variable 4.6 mph - N/A Thunderstorm Mostly Cloudy
10:38 AM 75.9 °F - 69.1 °F 79% 30.06 in 4.0 mi Variable 5.8 mph - 0.01 in Rain Light Rain
10:54 AM 75.0 °F - 70.0 °F 84% 30.05 in 5.0 mi Variable 3.5 mph - 0.01 in Rain Light Rain
11:03 AM 75.0 °F - 71.1 °F 87% 30.05 in 10.0 mi Variable 3.5 mph - 0.00 in   Overcast
11:10 AM 77.0 °F - 71.1 °F 82% 30.05 in 10.0 mi Variable 3.5 mph - 0.01 in Thunderstorm Overcast
11:25 AM 80.1 °F 83.8 °F 72.0 °F 76% 30.04 in 10.0 mi Variable 3.5 mph - 0.01 in   Overcast
11:54 AM 81.0 °F 84.1 °F 69.1 °F 67% 30.03 in 10.0 mi SW 9.2 mph - 0.01 in   Scattered Clouds
12:54 PM 82.0 °F 84.9 °F 68.0 °F 62% 30.01 in 10.0 mi SW 8.1 mph - N/A   Mostly Cloudy
1:54 PM 82.9 °F 85.4 °F 66.9 °F 58% 29.99 in 10.0 mi WSW 10.4 mph - N/A   Mostly Cloudy
2:54 PM 84.0 °F 86.5 °F 66.9 °F 56% 29.97 in 10.0 mi SW 6.9 mph - N/A   Partly Cloudy
3:54 PM 84.9 °F 87.6 °F 66.9 °F 55% 29.94 in 10.0 mi WSW 5.8 mph - N/A   Mostly Cloudy
4:54 PM 84.0 °F 85.8 °F 64.9 °F 53% 29.94 in 10.0 mi West 8.1 mph - N/A Thunderstorm Scattered Clouds
5:08 PM 81.0 °F 83.3 °F 66.9 °F 62% 29.95 in 10.0 mi NNW 15.0 mph 20.7 mph 0.00 in Rain , Thunderstorm Light Thunderstorms and Rain
5:23 PM 73.0 °F - 70.0 °F 90% 29.96 in 2.5 mi North 10.4 mph 19.6 mph 0.02 in Rain , Thunderstorm Heavy Rain
5:27 PM 73.0 °F - 70.0 °F 90% 29.97 in 1.8 mi NNW 9.2 mph 19.6 mph 0.03 in Rain , Thunderstorm Thunderstorms and Rain
5:43 PM 73.0 °F - 70.0 °F 90% 29.97 in 1.0 mi Variable 4.6 mph - 0.07 in Rain Rain
5:52 PM 71.6 °F - 69.8 °F 94% 29.97 in 0.8 mi West 6.9 mph - 0.09 in Rain Heavy Rain
5:54 PM 72.0 °F - 69.1 °F 91% 29.96 in 0.8 mi Calm Calm - 0.10 in Rain Heavy Rain
6:00 PM 72.0 °F - 69.1 °F 91% 29.96 in 1.2 mi North 4.6 mph - 0.01 in Rain Rain
6:06 PM 72.0 °F - 69.1 °F 91% 29.95 in 4.0 mi Calm Calm - 0.03 in Rain Light Rain
6:54 PM 73.0 °F - 69.1 °F 87% 29.94 in 10.0 mi Calm Calm - 0.12 in   Clear
7:54 PM 72.0 °F - 69.1 °F 91% 29.98 in 10.0 mi ESE 4.6 mph - 0.02 in   Clear
8:54 PM 71.1 °F - 69.1 °F 93% 29.98 in 9.0 mi Calm Calm - N/A   Mostly Cloudy
9:54 PM 70.0 °F - 69.1 °F 97% 29.98 in 6.0 mi Calm Calm - N/A   Mostly Cloudy
10:54 PM 69.1 °F - 66.9 °F 93% 29.99 in 4.0 mi Calm Calm - N/A   Clear
11:54 PM 69.1 °F - 68.0 °F 96% 29.99 in 8.0 mi Calm Calm - N/A   Overcast